Radioactive Concentration measured by Seawater Radiation Monitor near Fukushima Daiichi Nuclear Power Station
Date,Time,Cs137(Bq/L),Cs134(Bq/L),Total β(Bq/L)
2017/01/02,00:00,0.79,0.071,ND
2017/01/02,00:10,0.75,0.069,ND
2017/01/02,00:20,0.66,0.095,ND
2017/01/02,00:30,0.67,0.088,ND
2017/01/02,00:40,0.79,0.037,ND
2017/01/02,00:50,0.67,0.074,ND
2017/01/02,01:00,0.65,0.084,ND
2017/01/02,01:10,0.64,0.085,ND
2017/01/02,01:20,0.63,0.081,ND
2017/01/02,01:30,0.59,0.094,ND
2017/01/02,01:40,0.56,0.10,ND
2017/01/02,01:50,0.56,0.10,ND
2017/01/02,02:00,0.56,0.091,ND
2017/01/02,02:10,0.55,0.093,ND
2017/01/02,02:20,0.53,0.092,ND
2017/01/02,02:30,0.54,0.076,ND
2017/01/02,02:40,0.63,0.048,ND
2017/01/02,02:50,0.54,0.071,ND
2017/01/02,03:00,0.51,0.077,ND
2017/01/02,03:10,0.49,0.082,ND
2017/01/02,03:20,0.49,0.083,ND
2017/01/02,03:30,0.50,0.078,ND
2017/01/02,03:40,0.46,0.088,ND
2017/01/02,03:50,0.46,0.090,ND
2017/01/02,04:00,0.49,0.083,8.9
2017/01/02,04:10,0.51,0.075,10
2017/01/02,04:20,0.52,0.060,12
2017/01/02,04:30,0.50,0.080,11
2017/01/02,04:40,0.53,0.064,9.0
2017/01/02,04:50,0.52,0.059,10
2017/01/02,05:00,0.61,0.031,ND
2017/01/02,05:10,0.60,0.034,ND
2017/01/02,05:20,0.60,0.037,8.8
2017/01/02,05:30,0.59,0.030,8.8
2017/01/02,05:40,0.60,0.036,10
2017/01/02,05:50,0.60,0.042,ND
2017/01/02,06:00,0.58,0.040,ND
2017/01/02,06:10,0.48,0.076,ND
2017/01/02,06:20,0.48,0.079,ND
2017/01/02,06:30,0.50,0.077,ND
2017/01/02,06:40,0.52,0.076,ND
2017/01/02,06:50,0.50,0.086,ND
2017/01/02,07:00,0.51,0.088,ND
2017/01/02,07:10,0.61,0.050,ND
2017/01/02,07:20,0.60,0.047,ND
2017/01/02,07:30,0.57,0.052,ND
2017/01/02,07:40,0.45,0.091,ND
2017/01/02,07:50,0.45,0.080,ND
2017/01/02,08:00,0.47,0.069,ND
2017/01/02,08:10,0.47,0.063,ND
2017/01/02,08:20,0.46,0.068,ND
2017/01/02,08:30,0.46,0.067,ND
2017/01/02,08:40,0.45,0.077,ND
2017/01/02,08:50,0.47,0.072,ND
2017/01/02,09:00,0.45,0.083,ND
2017/01/02,09:10,0.45,0.094,ND
2017/01/02,09:20,0.43,0.098,ND
2017/01/02,09:30,0.46,0.088,ND
2017/01/02,09:40,0.60,0.054,ND
2017/01/02,09:50,0.58,0.060,ND
2017/01/02,10:00,0.59,0.055,ND
2017/01/02,10:10,0.46,0.077,ND
2017/01/02,10:20,0.47,0.079,ND
2017/01/02,10:30,0.47,0.077,ND
2017/01/02,10:40,0.47,0.076,ND
2017/01/02,10:50,0.47,0.069,ND
2017/01/02,11:00,0.49,0.062,ND
2017/01/02,11:10,0.49,0.059,ND
2017/01/02,11:20,0.49,0.059,ND
2017/01/02,11:30,0.50,0.071,ND
2017/01/02,11:40,0.50,0.075,ND
2017/01/02,11:50,0.49,0.080,ND
2017/01/02,12:00,0.50,0.078,ND
2017/01/02,12:10,0.50,0.073,ND
2017/01/02,12:20,0.49,0.074,ND
2017/01/02,12:30,0.49,0.070,10
2017/01/02,12:40,0.49,0.059,9.7
2017/01/02,12:50,0.61,0.040,ND
2017/01/02,13:00,0.58,0.051,8.8
2017/01/02,13:10,0.59,0.059,ND
2017/01/02,13:20,0.43,0.084,12
2017/01/02,13:30,0.42,0.086,10
2017/01/02,13:40,0.42,0.087,11
2017/01/02,13:50,0.44,0.069,10
2017/01/02,14:00,0.44,0.073,10
2017/01/02,14:10,0.42,0.069,12
2017/01/02,14:20,0.42,0.080,11
2017/01/02,14:30,0.45,0.059,13
2017/01/02,14:40,0.43,0.067,14
2017/01/02,14:50,0.43,0.077,12
2017/01/02,15:00,0.46,0.059,10
2017/01/02,15:10,0.47,0.060,9.0
2017/01/02,15:20,0.51,0.052,ND
2017/01/02,15:30,0.48,0.063,ND
2017/01/02,15:40,0.49,0.069,ND
2017/01/02,15:50,0.65,ND,ND
2017/01/02,16:00,0.59,0.036,ND
2017/01/02,16:10,0.56,0.032,ND
2017/01/02,16:20,0.56,0.037,ND
2017/01/02,16:30,0.55,0.037,ND
2017/01/02,16:40,0.55,0.029,ND
2017/01/02,16:50,0.57,0.034,ND
2017/01/02,17:00,0.42,0.067,ND
2017/01/02,17:10,0.45,0.068,ND
2017/01/02,17:20,0.44,0.072,9.5
2017/01/02,17:30,0.58,0.047,13
2017/01/02,17:40,0.57,0.052,11
2017/01/02,17:50,0.54,0.060,9.5
2017/01/02,18:00,0.55,0.048,12
2017/01/02,18:10,0.56,0.052,10
2017/01/02,18:20,0.57,0.052,10
2017/01/02,18:30,0.56,0.053,ND
2017/01/02,18:40,0.56,0.058,ND
2017/01/02,18:50,0.57,0.054,9.5
2017/01/02,19:00,0.58,0.051,ND
2017/01/02,19:10,0.59,0.037,ND
2017/01/02,19:20,0.57,0.035,ND
2017/01/02,19:30,0.57,0.032,ND
2017/01/02,19:40,0.59,0.027,9.7
2017/01/02,19:50,0.57,0.034,ND
2017/01/02,20:00,0.59,0.034,ND
2017/01/02,20:10,0.46,0.066,ND
2017/01/02,20:20,0.46,0.066,ND
2017/01/02,20:30,0.47,0.063,ND
2017/01/02,20:40,0.46,0.069,ND
2017/01/02,20:50,0.46,0.058,ND
2017/01/02,21:00,0.44,0.074,ND
2017/01/02,21:10,0.45,0.079,ND
2017/01/02,21:20,0.48,0.083,ND
2017/01/02,21:30,0.50,0.078,ND
2017/01/02,21:40,0.65,0.055,ND
2017/01/02,21:50,0.67,0.069,ND
2017/01/02,22:00,0.69,0.067,ND
2017/01/02,22:10,0.70,0.065,ND
2017/01/02,22:20,0.71,0.061,ND
2017/01/02,22:30,0.70,0.061,ND
2017/01/02,22:40,0.70,0.050,ND
2017/01/02,22:50,0.70,0.047,ND
2017/01/02,23:00,0.72,0.040,ND
2017/01/02,23:10,0.74,0.029,ND
2017/01/02,23:20,0.79,ND,ND
2017/01/02,23:30,0.66,0.049,ND
2017/01/02,23:40,0.81,0.025,ND
2017/01/02,23:50,0.79,0.030,ND
